User: anonymous   Login
Location: Unspecified
(0.0000°N, 0.0000°E)
Time: 01:05:37
(UTC+01:00)
Language:

Cosmos 1703 Rocket - Orbit

View from above orbital plane
View from above orbital plane
View from above satellite
View from above satellite

Ground track
Ground track

The orbit data is extracted from the following two-line orbital elements,

1 16263U 85108B   15064.55346770  .00000693  00000-0  82870-4 0  9990
2 16263 082.5065 177.1678 0019487 212.9623 279.0019 14.82678993580690
Epoch (UTC): 05 March 2015 13:16:59
Eccentricity: 0.0019487
inclination: 82.5065°
perigee height: 607 km
apogee height: 634 km
right ascension of ascending node: 177.1678°
argument of perigee: 212.9623°
revolutions per day: 14.82678993
mean anomaly at epoch: 279.0019°
orbit number at epoch: 58069

The dashed part of the orbit path shows where the satellite is in the earth's shadow,  

DLR